Location: Pettit
(39.0209°N, 79.7181°W)
Time: 17:53:14
(UTC+00:00)

HTV-X1 - Visible Passes

Search period start: 15 May 2026 00:00
Search period end: 25 May 2026 00:00
Orbit: 372 x 383 km, 51.6° (Epoch: 15 May)

Date Brightness Start Highest point End Pass type
(mag) Time Alt. Az. Time Alt. Az. Time Alt. Az.
15 May ? 01:31:38 10° NW 01:33:05 13° NNW 01:34:33 10° N visible
16 May ? 03:44:44 10° N 03:45:27 11° N 03:45:27 11° N visible
17 May ? 01:06:41 10° NNW 01:07:19 10° NNW 01:07:57 10° N visible
17 May ? 04:18:41 10° NNW 04:18:42 10° NNW 04:18:42 10° NNW visible
18 May ? 03:18:14 10° NNW 03:19:52 14° NNE 03:19:52 14° NNE visible
19 May ? 03:52:23 10° NW 03:53:06 15° NNW 03:53:06 15° NNW visible
20 May ? 02:51:47 10° NNW 02:53:59 18° NNE 02:54:13 18° NNE visible
21 May ? 01:51:24 10° N 01:52:38 12° NNE 01:53:52 10° NE visible
21 May ? 03:26:05 10° NW 03:27:26 22° NNW 03:27:26 22° NNW visible
22 May ? 02:25:20 10° NNW 02:27:55 24° NNE 02:28:35 22° NE visible
23 May ? 01:24:44 10° NNW 01:26:35 15° NNE 01:28:25 10° ENE visible
23 May ? 02:59:46 10° NW 03:01:49 38° NW 03:01:49 38° NW visible
24 May ? 01:58:51 10° NW 02:01:43 34° NNE 02:03:00 23° E visible
24 May ? 03:35:03 10° W 03:35:04 10° W 03:35:04 10° W visible
